Notices

What's New in latest Release from April 7th, 2021:

- Updated Glossary, including Speed of Maximum Gust, and Total Hourly Precipitation

- Updated national and regional climate services offices contacts and prices information

- Addition of station inventory lists for 1981-2010, 1971-2000, and 1961-1990 Normals.

If you haven't already, please take our survey and provide feedback about our website: https://eccc.sondage-survey.ca/f/LanguageSelection.aspx?s=442ca660-fcf1-47c0-95a9-59707d6fd709

Hourly Data Report for August 05, 2018

TORONTO CITY
ONTARIO
Current Station Operator: ECCC - MSC

43°40'00.000" N
79°24'00.000" W
112.50 m
6158355
71508
XTO

Download Data

Hourly Data (August 2018)
Hourly Data Report for August 5, 2018
TIME
LST
Temp Definition
°C
Dew Point Definition
°C
Rel Hum Definition
%
Precip. Amount Definition
mm

Wind Dir Definition
10's deg

Wind Spd Definition
km/h
Visibility Definition
km
Stn Press Definition
kPa
Hmdx Definition


Wind Chill Definition


Weather Definition


00:00 23.9 16.6 63 0.0 LegendMM LegendMM   100.56 29   LegendNANA
01:00 22.4 16.8 71 0.0 LegendMM LegendMM   100.57 28   LegendNANA
02:00 23.0 17.6 72 0.0 LegendMM LegendMM   100.57 29   LegendNANA
03:00 22.1 17.6 76 0.0 LegendMM LegendMM   100.57 28   LegendNANA
04:00 21.8 18.0 79 0.0 LegendMM LegendMM   100.57 28   LegendNANA
05:00 21.2 16.5 74 0.0 LegendMM LegendMM   100.61 26   LegendNANA
06:00 21.2 16.2 73 0.0 LegendMM LegendMM   100.65 26   LegendNANA
07:00 22.6 16.2 67 0.0 LegendMM LegendMM   100.67 27   LegendNANA
08:00 24.4 16.1 60 0.0 LegendMM LegendMM   100.69 29   LegendNANA
09:00 25.7 16.6 57 0.0 LegendMM LegendMM   100.65 31   LegendNANA
10:00 27.4 16.9 53 0.0 LegendMM LegendMM   100.64 33   LegendNANA
11:00 28.0 18.2 55 0.0 LegendMM LegendMM   100.63 34   LegendNANA
12:00 28.9 18.4 53 0.0 LegendMM LegendMM   100.60 35   LegendNANA
13:00 30.5 19.9 53 0.0 LegendMM LegendMM   100.58 38   LegendNANA
14:00 31.1 19.9 51 0.0 LegendMM LegendMM   100.49 39   LegendNANA
15:00 32.0 18.1 44 0.0 LegendMM LegendMM   100.43 38   LegendNANA
16:00 31.5 17.8 44 0.0 LegendMM LegendMM   100.41 37   LegendNANA
17:00 31.3 17.9 45 0.0 LegendMM LegendMM   100.36 37   LegendNANA
18:00 30.0 19.0 52 0.0 LegendMM LegendMM   100.33 37   LegendNANA
19:00 29.1 17.9 51 0.0 LegendMM LegendMM   100.31 35   LegendNANA
20:00 28.4 17.8 53 0.0 LegendMM LegendMM   100.35 34   LegendNANA
21:00 26.7 19.2 64 0.0 LegendMM LegendMM   100.43 34   LegendNANA
22:00 26.0 19.7 68 0.0 LegendMM LegendMM   100.42 33   LegendNANA
23:00 25.5 19.9 71 0.0 LegendMM LegendMM   100.43 33   LegendNANA

Notes on Data Quality.

Legend

  • E = Estimated
  • M = Missing
  • NA = Not Available*
  • [empty] = Indicates an unobserved value
Date modified: